Location: Newark
(40.4667°N, 5.6000°W)
Time: 06:29:25
(UTC+00:00)

Vanguard 2 Rocket - Visible Passes

Search period start: 12 November 2019 00:00
Search period end: 22 November 2019 00:00
Orbit: 554 x 3326 km, 32.9° (Epoch: 11 November)

Date Brightness Start Highest point End Pass type
(mag) Time Alt. Az. Time Alt. Az. Time Alt. Az.
12 Nov 9.2 03:03:47 24° ESE 03:03:47 24° ESE 03:08:16 10° E visible
12 Nov 8.3 05:09:36 28° WSW 05:13:47 55° S 05:26:12 10° ESE visible
13 Nov 7.9 04:13:32 48° S 04:14:01 48° SSE 04:24:08 10° E visible
13 Nov 8.9 06:19:53 10° W 06:27:56 52° S 06:42:00 10° ESE visible
14 Nov 8.9 03:17:28 28° ESE 03:17:28 28° ESE 03:22:27 10° E visible
14 Nov 8.3 05:23:17 25° WSW 05:27:48 52° S 05:39:55 10° ESE visible
15 Nov 7.7 04:27:13 48° SSW 04:27:59 50° S 04:38:02 10° ESE visible
15 Nov 9.0 06:34:09 10° W 06:41:58 44° SSW 06:55:13 10° SE visible
16 Nov 8.7 03:31:08 31° ESE 03:31:08 31° ESE 03:36:29 10° E visible
16 Nov 8.5 05:36:57 20° WSW 05:41:51 46° S 05:53:26 10° ESE visible
17 Nov 9.8 02:35:04 11° ESE 02:35:04 11° ESE 02:35:19 10° E visible
17 Nov 7.8 04:40:53 43° SSW 04:42:02 46° S 04:51:47 10° ESE visible
18 Nov 8.5 03:44:49 33° SE 03:44:49 33° SE 03:50:24 10° ESE visible
18 Nov 8.7 05:50:37 16° WSW 05:55:56 37° SSW 06:06:36 10° SE visible
19 Nov 9.7 02:48:45 12° ESE 02:48:45 12° ESE 02:49:24 10° ESE visible
19 Nov 7.9 04:54:33 35° SW 04:56:07 39° S 05:05:17 10° SE visible
20 Nov 8.4 03:58:31 33° SSE 03:58:31 33° SSE 04:04:09 10° ESE visible
20 Nov 8.9 06:04:20 11° WSW 06:10:04 28° SSW 06:19:14 10° SE visible
21 Nov 9.6 03:02:28 13° ESE 03:02:28 13° ESE 03:03:20 10° ESE visible
21 Nov 8.2 05:08:17 26° SW 05:10:14 30° SSW 05:18:24 10° SE visible
